﻿測定場所 (Monitoring sites),日付 (Measurement date),時間 (Measurement time),線量率 最大値 (max) μGy/h,線量率 最小値 (min) μGy/h,線量率 平均値 (average) μGy/h,
江戸川 (Edogawa),2013-12-29,23:01～24:00,0.0876,0.0730,0.0785,
江戸川 (Edogawa),2013-12-29,22:01～23:00,0.0838,0.0730,0.0785,
江戸川 (Edogawa),2013-12-29,21:01～22:00,0.0831,0.0729,0.0778,
江戸川 (Edogawa),2013-12-29,20:01～21:00,0.0842,0.0724,0.0780,
江戸川 (Edogawa),2013-12-29,19:01～20:00,0.0833,0.0735,0.0788,
江戸川 (Edogawa),2013-12-29,18:01～19:00,0.0841,0.0731,0.0781,
江戸川 (Edogawa),2013-12-29,17:01～18:00,0.0824,0.0740,0.0783,
江戸川 (Edogawa),2013-12-29,16:01～17:00,0.0852,0.0752,0.0793,
江戸川 (Edogawa),2013-12-29,15:01～16:00,0.0850,0.0733,0.0794,
江戸川 (Edogawa),2013-12-29,14:01～15:00,0.0835,0.0741,0.0791,
江戸川 (Edogawa),2013-12-29,13:01～14:00,0.0878,0.0738,0.0797,
江戸川 (Edogawa),2013-12-29,12:01～13:00,0.0859,0.0753,0.0795,
江戸川 (Edogawa),2013-12-29,11:01～12:00,0.0866,0.0731,0.0791,
江戸川 (Edogawa),2013-12-29,10:01～11:00,0.0859,0.0728,0.0782,
江戸川 (Edogawa),2013-12-29,09:01～10:00,0.0833,0.0730,0.0785,
江戸川 (Edogawa),2013-12-29,08:01～09:00,0.0857,0.0731,0.0783,
江戸川 (Edogawa),2013-12-29,07:01～08:00,0.0851,0.0734,0.0787,
江戸川 (Edogawa),2013-12-29,06:01～07:00,0.0828,0.0730,0.0783,
江戸川 (Edogawa),2013-12-29,05:01～06:00,0.0842,0.0723,0.0775,
江戸川 (Edogawa),2013-12-29,04:01～05:00,0.0841,0.0736,0.0783,
江戸川 (Edogawa),2013-12-29,03:01～04:00,0.0831,0.0736,0.0785,
江戸川 (Edogawa),2013-12-29,02:01～03:00,0.0838,0.0739,0.0789,
江戸川 (Edogawa),2013-12-29,01:01～02:00,0.0831,0.0743,0.0783,
江戸川 (Edogawa),2013-12-29,00:01～01:00,0.0828,0.0733,0.0776,
江戸川 (Edogawa),2013-12-28,23:01～24:00,0.0848,0.0732,0.0783,
江戸川 (Edogawa),2013-12-28,22:01～23:00,0.0827,0.0741,0.0782,
江戸川 (Edogawa),2013-12-28,21:01～22:00,0.0836,0.0718,0.0786,
江戸川 (Edogawa),2013-12-28,20:01～21:00,0.0854,0.0740,0.0785,
江戸川 (Edogawa),2013-12-28,19:01～20:00,0.0834,0.0725,0.0781,
江戸川 (Edogawa),2013-12-28,18:01～19:00,0.0830,0.0723,0.0785,
江戸川 (Edogawa),2013-12-28,17:01～18:00,0.0849,0.0727,0.0787,
江戸川 (Edogawa),2013-12-28,16:01～17:00,0.0879,0.0745,0.0792,
江戸川 (Edogawa),2013-12-28,15:01～16:00,0.0868,0.0741,0.0800,
江戸川 (Edogawa),2013-12-28,14:01～15:00,0.0855,0.0739,0.0795,
江戸川 (Edogawa),2013-12-28,13:01～14:00,0.0844,0.0745,0.0795,
江戸川 (Edogawa),2013-12-28,12:01～13:00,0.0858,0.0745,0.0796,
江戸川 (Edogawa),2013-12-28,11:01～12:00,0.0849,0.0737,0.0795,
江戸川 (Edogawa),2013-12-28,10:01～11:00,0.0870,0.0740,0.0799,
江戸川 (Edogawa),2013-12-28,09:01～10:00,0.0846,0.0732,0.0787,
江戸川 (Edogawa),2013-12-28,08:01～09:00,0.0848,0.0734,0.0784,
江戸川 (Edogawa),2013-12-28,07:01～08:00,0.0832,0.0733,0.0781,
江戸川 (Edogawa),2013-12-28,06:01～07:00,0.0834,0.0731,0.0778,
江戸川 (Edogawa),2013-12-28,05:01～06:00,0.0836,0.0722,0.0783,
江戸川 (Edogawa),2013-12-28,04:01～05:00,0.0835,0.0725,0.0785,
江戸川 (Edogawa),2013-12-28,03:01～04:00,0.0841,0.0721,0.0795,
江戸川 (Edogawa),2013-12-28,02:01～03:00,0.0856,0.0740,0.0792,
江戸川 (Edogawa),2013-12-28,01:01～02:00,0.0849,0.0746,0.0794,
江戸川 (Edogawa),2013-12-28,00:01～01:00,0.0833,0.0729,0.0786,
江戸川 (Edogawa),2013-12-27,23:01～24:00,0.0865,0.0744,0.0793,
江戸川 (Edogawa),2013-12-27,22:01～23:00,0.0850,0.0732,0.0791,
江戸川 (Edogawa),2013-12-27,21:01～22:00,0.0843,0.0733,0.0790,
江戸川 (Edogawa),2013-12-27,20:01～21:00,0.0829,0.0733,0.0787,
江戸川 (Edogawa),2013-12-27,19:01～20:00,0.0868,0.0739,0.0793,
江戸川 (Edogawa),2013-12-27,18:01～19:00,0.0856,0.0742,0.0806,
江戸川 (Edogawa),2013-12-27,17:01～18:00,0.0877,0.0768,0.0821,
江戸川 (Edogawa),2013-12-27,16:01～17:00,0.0898,0.0745,0.0815,
江戸川 (Edogawa),2013-12-27,15:01～16:00,0.0881,0.0764,0.0810,
江戸川 (Edogawa),2013-12-27,14:01～15:00,0.0909,0.0741,0.0802,
江戸川 (Edogawa),2013-12-27,13:01～14:00,0.0855,0.0745,0.0798,
江戸川 (Edogawa),2013-12-27,12:01～13:00,0.0860,0.0746,0.0801,
江戸川 (Edogawa),2013-12-27,11:01～12:00,0.0835,0.0727,0.0789,
江戸川 (Edogawa),2013-12-27,10:01～11:00,0.0867,0.0728,0.0789,
江戸川 (Edogawa),2013-12-27,09:01～10:00,0.0827,0.0738,0.0791,
江戸川 (Edogawa),2013-12-27,08:01～09:00,0.0866,0.0761,0.0804,
江戸川 (Edogawa),2013-12-27,07:01～08:00,0.0866,0.0759,0.0812,
江戸川 (Edogawa),2013-12-27,06:01～07:00,0.0871,0.0763,0.0813,
江戸川 (Edogawa),2013-12-27,05:01～06:00,0.0868,0.0739,0.0800,
江戸川 (Edogawa),2013-12-27,04:01～05:00,0.0849,0.0744,0.0802,
江戸川 (Edogawa),2013-12-27,03:01～04:00,0.0865,0.0751,0.0815,
江戸川 (Edogawa),2013-12-27,02:01～03:00,0.0888,0.0764,0.0815,
江戸川 (Edogawa),2013-12-27,01:01～02:00,0.0863,0.0745,0.0800,
江戸川 (Edogawa),2013-12-27,00:01～01:00,0.0873,0.0740,0.0806,
江戸川 (Edogawa),2013-12-26,23:01～24:00,0.0876,0.0763,0.0817,
江戸川 (Edogawa),2013-12-26,22:01～23:00,0.0873,0.0761,0.0814,
江戸川 (Edogawa),2013-12-26,21:01～22:00,0.0926,0.0759,0.0824,
江戸川 (Edogawa),2013-12-26,20:01～21:00,0.0847,0.0753,0.0799,
江戸川 (Edogawa),2013-12-26,19:01～20:00,0.0850,0.0735,0.0800,
江戸川 (Edogawa),2013-12-26,18:01～19:00,0.0860,0.0735,0.0804,
江戸川 (Edogawa),2013-12-26,17:01～18:00,0.0851,0.0750,0.0803,
江戸川 (Edogawa),2013-12-26,16:01～17:00,0.0863,0.0737,0.0796,
江戸川 (Edogawa),2013-12-26,15:01～16:00,0.0855,0.0750,0.0801,
江戸川 (Edogawa),2013-12-26,14:01～15:00,0.0861,0.0750,0.0806,
江戸川 (Edogawa),2013-12-26,13:01～14:00,0.0857,0.0760,0.0806,
江戸川 (Edogawa),2013-12-26,12:01～13:00,0.0848,0.0758,0.0803,
江戸川 (Edogawa),2013-12-26,11:01～12:00,0.0858,0.0738,0.0795,
江戸川 (Edogawa),2013-12-26,10:01～11:00,0.0852,0.0738,0.0800,
江戸川 (Edogawa),2013-12-26,09:01～10:00,0.0847,0.0724,0.0796,
江戸川 (Edogawa),2013-12-26,08:01～09:00,0.0866,0.0748,0.0797,
江戸川 (Edogawa),2013-12-26,07:01～08:00,0.0849,0.0748,0.0796,
江戸川 (Edogawa),2013-12-26,06:01～07:00,0.0844,0.0733,0.0791,
江戸川 (Edogawa),2013-12-26,05:01～06:00,0.0856,0.0742,0.0797,
江戸川 (Edogawa),2013-12-26,04:01～05:00,0.0852,0.0747,0.0799,
江戸川 (Edogawa),2013-12-26,03:01～04:00,0.0841,0.0735,0.0795,
江戸川 (Edogawa),2013-12-26,02:01～03:00,0.0829,0.0751,0.0793,
江戸川 (Edogawa),2013-12-26,01:01～02:00,0.0850,0.0738,0.0789,
江戸川 (Edogawa),2013-12-26,00:01～01:00,0.0842,0.0732,0.0786,
江戸川 (Edogawa),2013-12-25,23:01～24:00,0.0852,0.0732,0.0787,
江戸川 (Edogawa),2013-12-25,22:01～23:00,0.0851,0.0729,0.0787,
江戸川 (Edogawa),2013-12-25,21:01～22:00,0.0847,0.0728,0.0778,
江戸川 (Edogawa),2013-12-25,20:01～21:00,0.0847,0.0724,0.0777,
江戸川 (Edogawa),2013-12-25,19:01～20:00,0.0841,0.0723,0.0786,
江戸川 (Edogawa),2013-12-25,18:01～19:00,0.0827,0.0729,0.0779,
江戸川 (Edogawa),2013-12-25,17:01～18:00,0.0845,0.0743,0.0791,
江戸川 (Edogawa),2013-12-25,16:01～17:00,0.0861,0.0745,0.0787,
江戸川 (Edogawa),2013-12-25,15:01～16:00,0.0826,0.0742,0.0786,
江戸川 (Edogawa),2013-12-25,14:01～15:00,0.0849,0.0743,0.0793,
江戸川 (Edogawa),2013-12-25,13:01～14:00,0.0853,0.0736,0.0796,
江戸川 (Edogawa),2013-12-25,12:01～13:00,0.0836,0.0733,0.0798,
江戸川 (Edogawa),2013-12-25,11:01～12:00,0.0842,0.0745,0.0799,
江戸川 (Edogawa),2013-12-25,10:01～11:00,0.0838,0.0725,0.0784,
江戸川 (Edogawa),2013-12-25,09:01～10:00,0.0844,0.0728,0.0787,
江戸川 (Edogawa),2013-12-25,08:01～09:00,0.0827,0.0718,0.0775,
江戸川 (Edogawa),2013-12-25,07:01～08:00,0.0830,0.0728,0.0776,
江戸川 (Edogawa),2013-12-25,06:01～07:00,0.0826,0.0725,0.0778,
江戸川 (Edogawa),2013-12-25,05:01～06:00,0.0839,0.0737,0.0776,
江戸川 (Edogawa),2013-12-25,04:01～05:00,0.0854,0.0724,0.0777,
江戸川 (Edogawa),2013-12-25,03:01～04:00,0.0867,0.0719,0.0777,
江戸川 (Edogawa),2013-12-25,02:01～03:00,0.0836,0.0740,0.0778,
江戸川 (Edogawa),2013-12-25,01:01～02:00,0.0836,0.0725,0.0786,
江戸川 (Edogawa),2013-12-25,00:01～01:00,0.0823,0.0733,0.0782,
江戸川 (Edogawa),2013-12-24,23:01～24:00,0.0847,0.0731,0.0785,
江戸川 (Edogawa),2013-12-24,22:01～23:00,0.0837,0.0723,0.0781,
江戸川 (Edogawa),2013-12-24,21:01～22:00,0.0829,0.0738,0.0778,
江戸川 (Edogawa),2013-12-24,20:01～21:00,0.0857,0.0735,0.0783,
江戸川 (Edogawa),2013-12-24,19:01～20:00,0.0840,0.0719,0.0785,
江戸川 (Edogawa),2013-12-24,18:01～19:00,0.0820,0.0735,0.0778,
江戸川 (Edogawa),2013-12-24,17:01～18:00,0.0828,0.0730,0.0786,
江戸川 (Edogawa),2013-12-24,16:01～17:00,0.0849,0.0737,0.0791,
江戸川 (Edogawa),2013-12-24,15:01～16:00,0.0856,0.0718,0.0793,
江戸川 (Edogawa),2013-12-24,14:01～15:00,0.0835,0.0736,0.0791,
江戸川 (Edogawa),2013-12-24,13:01～14:00,0.0848,0.0742,0.0796,
江戸川 (Edogawa),2013-12-24,12:01～13:00,0.0864,0.0738,0.0794,
江戸川 (Edogawa),2013-12-24,11:01～12:00,0.0848,0.0749,0.0794,
江戸川 (Edogawa),2013-12-24,10:01～11:00,0.0855,0.0735,0.0791,
江戸川 (Edogawa),2013-12-24,09:01～10:00,0.0832,0.0738,0.0787,
江戸川 (Edogawa),2013-12-24,08:01～09:00,0.0841,0.0731,0.0787,
江戸川 (Edogawa),2013-12-24,07:01～08:00,0.0850,0.0735,0.0780,
江戸川 (Edogawa),2013-12-24,06:01～07:00,0.0822,0.0733,0.0784,
江戸川 (Edogawa),2013-12-24,05:01～06:00,0.0834,0.0734,0.0787,
江戸川 (Edogawa),2013-12-24,04:01～05:00,0.0833,0.0733,0.0787,
江戸川 (Edogawa),2013-12-24,03:01～04:00,0.0845,0.0737,0.0789,
江戸川 (Edogawa),2013-12-24,02:01～03:00,0.0848,0.0734,0.0795,
江戸川 (Edogawa),2013-12-24,01:01～02:00,0.0848,0.0734,0.0788,
江戸川 (Edogawa),2013-12-24,00:01～01:00,0.0872,0.0736,0.0793,
江戸川 (Edogawa),2013-12-23,23:01～24:00,0.0846,0.0730,0.0788,
江戸川 (Edogawa),2013-12-23,22:01～23:00,0.0832,0.0739,0.0783,
江戸川 (Edogawa),2013-12-23,21:01～22:00,0.0856,0.0734,0.0787,
江戸川 (Edogawa),2013-12-23,20:01～21:00,0.0845,0.0736,0.0782,
江戸川 (Edogawa),2013-12-23,19:01～20:00,0.0827,0.0739,0.0784,
江戸川 (Edogawa),2013-12-23,18:01～19:00,0.0840,0.0735,0.0789,
江戸川 (Edogawa),2013-12-23,17:01～18:00,0.0841,0.0735,0.0780,
江戸川 (Edogawa),2013-12-23,16:01～17:00,0.0838,0.0731,0.0790,
江戸川 (Edogawa),2013-12-23,15:01～16:00,0.0854,0.0735,0.0794,
江戸川 (Edogawa),2013-12-23,14:01～15:00,0.0851,0.0734,0.0786,
江戸川 (Edogawa),2013-12-23,13:01～14:00,0.0856,0.0739,0.0786,
江戸川 (Edogawa),2013-12-23,12:01～13:00,0.0857,0.0730,0.0786,
江戸川 (Edogawa),2013-12-23,11:01～12:00,0.0855,0.0739,0.0782,
江戸川 (Edogawa),2013-12-23,10:01～11:00,0.0842,0.0725,0.0787,
江戸川 (Edogawa),2013-12-23,09:01～10:00,0.0829,0.0733,0.0782,
江戸川 (Edogawa),2013-12-23,08:01～09:00,0.0841,0.0729,0.0786,
江戸川 (Edogawa),2013-12-23,07:01～08:00,0.0819,0.0733,0.0772,
江戸川 (Edogawa),2013-12-23,06:01～07:00,0.0846,0.0731,0.0778,
江戸川 (Edogawa),2013-12-23,05:01～06:00,0.0833,0.0733,0.0780,
江戸川 (Edogawa),2013-12-23,04:01～05:00,0.0826,0.0728,0.0779,
江戸川 (Edogawa),2013-12-23,03:01～04:00,0.0831,0.0724,0.0775,
江戸川 (Edogawa),2013-12-23,02:01～03:00,0.0827,0.0736,0.0781,
江戸川 (Edogawa),2013-12-23,01:01～02:00,0.0824,0.0730,0.0775,
江戸川 (Edogawa),2013-12-23,00:01～01:00,0.0831,0.0734,0.0776,
